^^
Station Historical Data
Daily Summary for Nil La, TWC- Units:  Metric    English   Both
« Previous Day
Next Day »
Daily Weekly Monthly Yearly Custom
  High: Low: Average:
Temperature: -17.8 °C -14.8 °C -9.4 °C
Dew Point: -17.8 °C -15.9 °C -14.9 °C
Humidity: Humidity% 34% 56%
Wind Speed: 0km/h 0km/h 0.6km/h
Wind Gust: 0km/h - -
Wind- - SE
Pressure: 0 hPa 34818.2 hPa -
Precipitation: 0 mm    
Historical Graphs
 
 
Tabular Data for Nil La, TWC-
Time Temperature Dew Point Pressure Wind Wind Speed Wind Gust Humidity Rainfall Rate (Hourly) solar Conditions
-17.8 °C -17.8 °C 0 hPa Calm     Humidity% 0 mm SoftwareType W/m2 Conditions
00:03 -12.6 °C -14.8 °C 34841.9 hPa Calm     76% 0 mm WeatherDisplay:10.37 W/m2 CLR
00:08 -12.6 °C -14.8 °C 34841.9 hPa Calm     76% 0 mm WeatherDisplay:10.37 W/m2 CLR
00:13 -12.6 °C -14.8 °C 34841.9 hPa Calm     77% 0 mm WeatherDisplay:10.37 W/m2 CLR
00:18 -12.7 °C -14.8 °C 34841.9 hPa Calm     77% 0 mm WeatherDisplay:10.37 W/m2 CLR
00:23 -12.7 °C -14.9 °C 34841.9 hPa Calm     77% 0 mm WeatherDisplay:10.37 W/m2 CLR
00:28 -12.8 °C -14.8 °C 34841.9 hPa Calm     78% 0 mm WeatherDisplay:10.37 W/m2 CLR
00:33 -12.8 °C -14.8 °C 34841.9 hPa Calm     78% 0 mm WeatherDisplay:10.37 W/m2 CLR
00:38 -12.9 °C -14.9 °C 34841.9 hPa Calm     78% 0 mm WeatherDisplay:10.37 W/m2 CLR
00:43 -12.9 °C -14.9 °C 34841.9 hPa Calm     78% 0 mm WeatherDisplay:10.37 W/m2 CLR
00:48 -13 °C -15 °C 34841.9 hPa Calm     78% 0 mm WeatherDisplay:10.37 W/m2 CLR
00:54 -13 °C -14.9 °C 34841.9 hPa Calm     79% 0 mm WeatherDisplay:10.37 W/m2 CLR
00:59 -13.1 °C -14.9 °C 34841.9 hPa Calm     80% 0 mm WeatherDisplay:10.37 W/m2 CLR
01:04 -13.1 °C -15.1 °C 34841.9 hPa Calm     79% 0 mm WeatherDisplay:10.37 W/m2 CLR
01:09 -13.2 °C -15 °C 34841.9 hPa Calm     80% 0 mm WeatherDisplay:10.37 W/m2 CLR
01:14 -13.2 °C -15.1 °C 34852.1 hPa Calm     80% 0 mm WeatherDisplay:10.37 W/m2 CLR
01:19 -13.3 °C -15.1 °C 34852.1 hPa Calm     80% 0 mm WeatherDisplay:10.37 W/m2 CLR
01:24 -13.4 °C -15.1 °C 34841.9 hPa Calm     81% 0 mm WeatherDisplay:10.37 W/m2 CLR
01:29 -13.4 °C -15.1 °C 34852.1 hPa Calm     81% 0 mm WeatherDisplay:10.37 W/m2 CLR
01:34 -13.4 °C -15.2 °C 34841.9 hPa Calm     81% 0 mm WeatherDisplay:10.37 W/m2 CLR
01:39 -13.5 °C -15.2 °C 34841.9 hPa Calm     81% 0 mm WeatherDisplay:10.37 W/m2 CLR
01:44 -13.5 °C -15.2 °C 34841.9 hPa Calm     81% 0 mm WeatherDisplay:10.37 W/m2 CLR
01:49 -13.6 °C -15.2 °C 34841.9 hPa Calm     82% 0 mm WeatherDisplay:10.37 W/m2 CLR
01:54 -13.6 °C -15.2 °C 34841.9 hPa Calm     82% 0 mm WeatherDisplay:10.37 W/m2 CLR
02:00 -13.7 °C -15.2 °C 34841.9 hPa Calm     82% 0 mm WeatherDisplay:10.37 W/m2 CLR
02:05 -13.7 °C -15.3 °C 34841.9 hPa Calm     82% 0 mm WeatherDisplay:10.37 W/m2 CLR
02:10 -13.8 °C -15.4 °C 34841.9 hPa Calm     82% 0 mm WeatherDisplay:10.37 W/m2 CLR
02:15 -13.8 °C -15.3 °C 34841.9 hPa Calm     83% 0 mm WeatherDisplay:10.37 W/m2 CLR
02:20 -13.9 °C -15.4 °C 34852.1 hPa Calm     83% 0 mm WeatherDisplay:10.37 W/m2 CLR
02:25 -14 °C -15.5 °C 34852.1 hPa Calm     83% 0 mm WeatherDisplay:10.37 W/m2 CLR
02:30 -14.1 °C -15.4 °C 34841.9 hPa Calm     84% 0 mm WeatherDisplay:10.37 W/m2 CLR
02:35 -14.1 °C -15.4 °C 34841.9 hPa Calm     84% 0 mm WeatherDisplay:10.37 W/m2 CLR
02:40 -14.1 °C -15.5 °C 34852.1 hPa Calm     84% 0 mm WeatherDisplay:10.37 W/m2 CLR
02:45 -14.1 °C -15.5 °C 34852.1 hPa Calm     84% 0 mm WeatherDisplay:10.37 W/m2 CLR
02:50 -14.2 °C -15.6 °C 34852.1 hPa Calm     84% 0 mm WeatherDisplay:10.37 W/m2 CLR
02:55 -14.2 °C -15.5 °C 34852.1 hPa Calm     85% 0 mm WeatherDisplay:10.37 W/m2 CLR
03:00 -14.2 °C -15.6 °C 34852.1 hPa Calm     84% 0 mm WeatherDisplay:10.37 W/m2 CLR
03:06 -14.2 °C -15.6 °C 34852.1 hPa Calm     84% 0 mm WeatherDisplay:10.37 W/m2 CLR
03:11 -14.2 °C -15.5 °C 34852.1 hPa Calm     85% 0 mm WeatherDisplay:10.37 W/m2 CLR
03:16 -14.2 °C -15.5 °C 34852.1 hPa Calm     85% 0 mm WeatherDisplay:10.37 W/m2 CLR
03:21 -14.3 °C -15.6 °C 34852.1 hPa Calm     85% 0 mm WeatherDisplay:10.37 W/m2 CLR
03:26 -14.3 °C -15.6 °C 34852.1 hPa Calm     85% 0 mm WeatherDisplay:10.37 W/m2 CLR
03:31 -14.3 °C -15.7 °C 34852.1 hPa Calm     84% 0 mm WeatherDisplay:10.37 W/m2 CLR
03:36 -14.3 °C -15.7 °C 34852.1 hPa Calm     85% 0 mm WeatherDisplay:10.37 W/m2 CLR
03:41 -14.4 °C -15.7 °C 34852.1 hPa Calm     85% 0 mm WeatherDisplay:10.37 W/m2 CLR
03:46 -14.4 °C -15.7 °C 34852.1 hPa Calm     85% 0 mm WeatherDisplay:10.37 W/m2 CLR
03:51 -14.5 °C -15.8 °C 34852.1 hPa Calm     85% 0 mm WeatherDisplay:10.37 W/m2 CLR
03:56 -14.6 °C -15.8 °C 34852.1 hPa Calm     85% 0 mm WeatherDisplay:10.37 W/m2 CLR
04:01 -14.6 °C -15.9 °C 34852.1 hPa Calm     85% 0 mm WeatherDisplay:10.37 W/m2 CLR
04:06 -14.6 °C -15.8 °C 34852.1 hPa Calm     86% 0 mm WeatherDisplay:10.37 W/m2 CLR
04:12 -14.7 °C -15.9 °C 34852.1 hPa Calm     86% 0 mm WeatherDisplay:10.37 W/m2 CLR
04:17 -14.7 °C -15.9 °C 34852.1 hPa Calm     86% 0 mm WeatherDisplay:10.37 W/m2 CLR
04:22 -14.8 °C -15.9 °C 34852.1 hPa Calm     87% 0 mm WeatherDisplay:10.37 W/m2 CLR
04:27 -14.8 °C -15.9 °C 34852.1 hPa Calm     87% 0 mm WeatherDisplay:10.37 W/m2 CLR
04:32 -14.8 °C -15.9 °C 34852.1 hPa Calm     87% 0 mm WeatherDisplay:10.37 W/m2 CLR
04:37 -14.8 °C -15.9 °C 34852.1 hPa Calm     87% 0 mm WeatherDisplay:10.37 W/m2 CLR
04:42 -14.8 °C -15.9 °C 34852.1 hPa Calm     87% 0 mm WeatherDisplay:10.37 W/m2 CLR
04:47 -14.8 °C -15.9 °C 34852.1 hPa Calm     87% 0 mm WeatherDisplay:10.37 W/m2 CLR
04:52 -14.8 °C -15.9 °C 34852.1 hPa Calm     87% 0 mm WeatherDisplay:10.37 W/m2 CLR
04:57 -14.8 °C -15.9 °C 34852.1 hPa Calm     87% 0 mm WeatherDisplay:10.37 W/m2 CLR
05:02 -14.8 °C -15.9 °C 34852.1 hPa Calm     87% 0 mm WeatherDisplay:10.37 W/m2 CLR
05:07 -14.8 °C -15.9 °C 34852.1 hPa Calm     87% 0 mm WeatherDisplay:10.37 W/m2 CLR
05:12 -14.8 °C -15.9 °C 34865.6 hPa Calm     87% 0 mm WeatherDisplay:10.37 W/m2 CLR
05:18 -14.7 °C -15.8 °C 34865.6 hPa Calm     87% 0 mm WeatherDisplay:10.37 W/m2 CLR
05:23 -14.7 °C -15.8 °C 34865.6 hPa Calm     87% 0 mm WeatherDisplay:10.37 W/m2 CLR
05:28 -14.6 °C -15.7 °C 34865.6 hPa Calm     87% 0 mm WeatherDisplay:10.37 W/m2 CLR
05:33 -14.6 °C -15.3 °C 34865.6 hPa Calm     91% 0 mm WeatherDisplay:10.37 W/m2 CLR
05:38 -14.5 °C -15.7 °C 34865.6 hPa Calm     86% 0 mm WeatherDisplay:10.37 W/m2 CLR
05:43 -14.4 °C -15.6 °C 34865.6 hPa Calm     86% 0 mm WeatherDisplay:10.37 W/m2 CLR
05:48 -14.3 °C -15.6 °C 34865.6 hPa Calm     86% 0 mm WeatherDisplay:10.37 W/m2 CLR
05:53 -14.3 °C -15.4 °C 34865.6 hPa Calm     87% 0 mm WeatherDisplay:10.37 W/m2 CLR
05:58 -14.3 °C -15.4 °C 34865.6 hPa Calm     87% 0 mm WeatherDisplay:10.37 W/m2 CLR
06:03 -14.2 °C -15.4 °C 34865.6 hPa Calm     86% 0 mm WeatherDisplay:10.37 W/m2 CLR
06:08 -14 °C -15.2 °C 34865.6 hPa Calm     86% 0 mm WeatherDisplay:10.37 W/m2 CLR
06:13 -13.9 °C -15.1 °C 34865.6 hPa Calm     86% 0 mm WeatherDisplay:10.37 W/m2 CLR
06:18 -13.8 °C -14.9 °C 34875.8 hPa Calm     86% 0 mm WeatherDisplay:10.37 W/m2 CLR
06:24 -13.6 °C -14.8 °C 34875.8 hPa Calm     86% 0 mm WeatherDisplay:10.37 W/m2 CLR
06:29 -13.4 °C -14.7 °C 34875.8 hPa Calm     86% 0 mm WeatherDisplay:10.37 W/m2 CLR
06:34 -13.3 °C -14.6 °C 34875.8 hPa Calm     86% 0 mm WeatherDisplay:10.37 W/m2 CLR
06:39 -13.2 °C -14.5 °C 34875.8 hPa Calm     85% 0 mm WeatherDisplay:10.37 W/m2 CLR
06:44 -13 °C -14.3 °C 34875.8 hPa Calm     85% 0 mm WeatherDisplay:10.37 W/m2 CLR
06:49 -12.9 °C -14.2 °C 34875.8 hPa Calm     85% 0 mm WeatherDisplay:10.37 W/m2 CLR
06:54 -12.7 °C -14.1 °C 34875.8 hPa Calm     85% 0 mm WeatherDisplay:10.37 W/m2 CLR
06:59 -12.6 °C -13.8 °C 34875.8 hPa Calm     86% 0 mm WeatherDisplay:10.37 W/m2 CLR
07:04 -12.4 °C -13.8 °C 34875.8 hPa Calm     85% 0 mm WeatherDisplay:10.37 W/m2 CLR
07:09 -12.3 °C -13.5 °C 34875.8 hPa Calm     86% 0 mm WeatherDisplay:10.37 W/m2 CLR
07:14 -12.1 °C -13.4 °C 34875.8 hPa Calm     85% 0 mm WeatherDisplay:10.37 W/m2 CLR
07:19 -11.9 °C -13.2 °C 34875.8 hPa Calm     86% 0 mm WeatherDisplay:10.37 W/m2 CLR
07:24 -11.7 °C -12.9 °C 34875.8 hPa Calm     86% 0 mm WeatherDisplay:10.37 W/m2 CLR
07:30 -11.5 °C -12.9 °C 34875.8 hPa Calm     85% 0 mm WeatherDisplay:10.37 W/m2 CLR
07:35 -11.3 °C -12.9 °C 34875.8 hPa Calm     82% 0 mm WeatherDisplay:10.37 W/m2 CLR
07:40 -11.1 °C -13.2 °C 34875.8 hPa Calm   3.1 km/h 78% 0 mm WeatherDisplay:10.37 W/m2 CLR
07:45 -10.9 °C -13.4 °C 34875.8 hPa Calm     74% 0 mm WeatherDisplay:10.37 W/m2 CLR
07:50 -10.7 °C -14.1 °C 34875.8 hPa Calm   3.1 km/h 67% 0 mm WeatherDisplay:10.37 W/m2 CLR
07:55 -10.4 °C -14.6 °C 34875.8 hPa Calm   3.1 km/h 61% 0 mm WeatherDisplay:10.37 W/m2 CLR
08:00 -10.2 °C -14.6 °C 34875.8 hPa Calm     59% 0 mm WeatherDisplay:10.37 W/m2 CLR
08:05 -9.9 °C -14.9 °C 34875.8 hPa Calm     55% 0 mm WeatherDisplay:10.37 W/m2 CLR
08:10 -9.7 °C -14.6 °C 34875.8 hPa Calm     55% 0 mm WeatherDisplay:10.37 W/m2 CLR
08:15 -9.6 °C -13.9 °C 34875.8 hPa Calm     59% 0 mm WeatherDisplay:10.37 W/m2 CLR
08:20 -9.4 °C -14.3 °C 34875.8 hPa SSE 0.3 km/h   56% 0 mm WeatherDisplay:10.37 W/m2 CLR
08:25 -9.3 °C -14.2 °C 34875.8 hPa Calm     56% 0 mm WeatherDisplay:10.37 W/m2 CLR
08:30 -9.2 °C -14.2 °C 34875.8 hPa Calm     55% 0 mm WeatherDisplay:10.37 W/m2 CLR
08:36 -9.1 °C -14.6 °C 34875.8 hPa SSE 0.5 km/h 5.1 km/h 52% 0 mm WeatherDisplay:10.37 W/m2 CLR
08:41 -8.9 °C -14.1 °C 34875.8 hPa Calm     54% 0 mm WeatherDisplay:10.37 W/m2 CLR
08:46 -8.7 °C -14.2 °C 34875.8 hPa Calm     52% 0 mm WeatherDisplay:10.37 W/m2 CLR
08:51 -8.7 °C -14.1 °C 34889.3 hPa Calm   3.1 km/h 52% 0 mm WeatherDisplay:10.37 W/m2 CLR
08:56 -8.5 °C -14.7 °C 34889.3 hPa Calm     48% 0 mm WeatherDisplay:10.37 W/m2 CLR
09:01 -8.4 °C -14.3 °C 34889.3 hPa Calm     49% 0 mm WeatherDisplay:10.37 W/m2 CLR
09:06 -8.2 °C -14.6 °C 34889.3 hPa SSE 0.3 km/h 3.1 km/h 47% 0 mm WeatherDisplay:10.37 W/m2 CLR
09:11 -8.1 °C -14.8 °C 34889.3 hPa Calm     45% 0 mm WeatherDisplay:10.37 W/m2 CLR
09:16 -7.9 °C -14.5 °C 34889.3 hPa Calm   3.1 km/h 46% 0 mm WeatherDisplay:10.37 W/m2 CLR
09:21 -7.7 °C -14.4 °C 34889.3 hPa SSE 0.3 km/h 2.6 km/h 45% 0 mm WeatherDisplay:10.37 W/m2 CLR
09:26 -7.5 °C -14.8 °C 34889.3 hPa Calm   2.6 km/h 42% 0 mm WeatherDisplay:10.37 W/m2 CLR
09:31 -7.3 °C -15.2 °C 34889.3 hPa Calm     39% 0 mm WeatherDisplay:10.37 W/m2 CLR
09:36 -7.1 °C -14.9 °C 34889.3 hPa Calm     40% 0 mm WeatherDisplay:10.37 W/m2 CLR
09:42 -6.9 °C -15.1 °C 34889.3 hPa Calm   9 km/h 38% 0 mm WeatherDisplay:10.37 W/m2 CLR
09:47 -6.9 °C -14.7 °C 34889.3 hPa Calm   3.1 km/h 40% 0 mm WeatherDisplay:10.37 W/m2 CLR
09:52 -6.8 °C -14.8 °C 34889.3 hPa SSE 0.3 km/h 9 km/h 39% 0 mm WeatherDisplay:10.37 W/m2 CLR
09:57 -6.7 °C -14.9 °C 34875.8 hPa Calm     38% 0 mm WeatherDisplay:10.37 W/m2 CLR
10:02 -6.6 °C -14.6 °C 34875.8 hPa SSE 1.3 km/h 5.1 km/h 39% 0 mm WeatherDisplay:10.37 W/m2 CLR
10:07 -6.4 °C -14.3 °C 34875.8 hPa Calm     40% 0 mm WeatherDisplay:10.37 W/m2 CLR
10:12 -6.6 °C -14.4 °C 34875.8 hPa SE 0.3 km/h 2.6 km/h 40% 0 mm WeatherDisplay:10.37 W/m2 CLR
10:17 -6.6 °C -14.8 °C 34875.8 hPa Calm     38% 0 mm WeatherDisplay:10.37 W/m2 CLR
10:22 -6.5 °C -14.1 °C 34875.8 hPa Calm   3.1 km/h 41% 0 mm WeatherDisplay:10.37 W/m2 CLR
10:27 -6.4 °C -14.7 °C 34875.8 hPa ENE 2.1 km/h 10.3 km/h 38% 0 mm WeatherDisplay:10.37 W/m2 CLR
10:32 -6.3 °C -14.3 °C 34875.8 hPa East 1.3 km/h 5.1 km/h 39% 0 mm WeatherDisplay:10.37 W/m2 CLR
10:37 -6.2 °C -14.7 °C 34875.8 hPa East 5.5 km/h 15.6 km/h 37% 0 mm WeatherDisplay:10.37 W/m2 CLR
10:42 -6.3 °C -14.4 °C 34875.8 hPa ESE 0.8 km/h 6 km/h 39% 0 mm WeatherDisplay:10.37 W/m2 CLR
10:47 -6.3 °C -14.3 °C 34875.8 hPa SE 0.3 km/h 3.1 km/h 39% 0 mm WeatherDisplay:10.37 W/m2 CLR
10:53 -6.2 °C -14.4 °C 34875.8 hPa Calm     38% 0 mm WeatherDisplay:10.37 W/m2 CLR
10:58 -6.1 °C -14.6 °C 34875.8 hPa East 1.6 km/h 6 km/h 37% 0 mm WeatherDisplay:10.37 W/m2 CLR
11:03 -6.2 °C -14.8 °C 34889.3 hPa SSE 0.3 km/h 9 km/h 36% 0 mm WeatherDisplay:10.37 W/m2 CLR
11:08 -6.2 °C -14.2 °C 34889.3 hPa ESE 0.5 km/h 6 km/h 39% 0 mm WeatherDisplay:10.37 W/m2 CLR
11:13 -6.2 °C -14.6 °C 34889.3 hPa SSE 2.9 km/h 9 km/h 37% 0 mm WeatherDisplay:10.37 W/m2 CLR
11:18 -6.2 °C -14.6 °C 34875.8 hPa Calm     37% 0 mm WeatherDisplay:10.37 W/m2 CLR
11:23 -6.2 °C -14.7 °C 34875.8 hPa ESE 3.9 km/h 10.3 km/h 37% 0 mm WeatherDisplay:10.37 W/m2 CLR
11:28 -6.2 °C -14.7 °C 34889.3 hPa SSE 1 km/h 6 km/h 37% 0 mm WeatherDisplay:10.37 W/m2 CLR
11:33 -6.2 °C -14.7 °C 34889.3 hPa SSE 4.7 km/h 12.9 km/h 37% 0 mm WeatherDisplay:10.37 W/m2 CLR
11:38 -6.2 °C -14.4 °C 34875.8 hPa SSE 0.8 km/h 15 km/h 38% 0 mm WeatherDisplay:10.37 W/m2 CLR
11:43 -6.2 °C -14.8 °C 34875.8 hPa Calm   2.6 km/h 36% 0 mm WeatherDisplay:10.37 W/m2 CLR
11:48 -6 °C -14.5 °C 34875.8 hPa Calm     37% 0 mm WeatherDisplay:10.37 W/m2 CLR
11:53 -5.8 °C -14.6 °C 34875.8 hPa SE 3.1 km/h 10.3 km/h 36% 0 mm WeatherDisplay:10.37 W/m2 CLR
11:59 -5.8 °C -14.6 °C 34875.8 hPa Calm   6 km/h 36% 0 mm WeatherDisplay:10.37 W/m2 CLR
12:04 -5.9 °C -14.6 °C 34875.8 hPa Calm     36% 0 mm WeatherDisplay:10.37 W/m2 CLR
12:09 -5.9 °C -14.6 °C 34875.8 hPa Calm     36% 0 mm WeatherDisplay:10.37 W/m2 CLR
12:14 -6.1 °C -14.6 °C 34875.8 hPa SSE 4.2 km/h 10.3 km/h 37% 0 mm WeatherDisplay:10.37 W/m2 CLR
12:19 -6.2 °C -14.7 °C 34875.8 hPa South 1 km/h 10.3 km/h 37% 0 mm WeatherDisplay:10.37 W/m2 CLR
12:24 -5.8 °C -14.6 °C 34875.8 hPa ENE 0.3 km/h 3.1 km/h 36% 0 mm WeatherDisplay:10.37 W/m2 CLR
12:29 -5.7 °C -14.9 °C 34875.8 hPa ESE 6.8 km/h 18.2 km/h 34% 0 mm WeatherDisplay:10.37 W/m2 CLR
12:34 -5.7 °C -14.9 °C 34875.8 hPa Calm     34% 0 mm WeatherDisplay:10.37 W/m2 CLR
12:39 -5.8 °C -14.1 °C 34875.8 hPa Calm     38% 0 mm WeatherDisplay:10.37 W/m2 CLR
12:44 -5.7 °C -14.9 °C 34875.8 hPa Calm     34% 0 mm WeatherDisplay:10.37 W/m2 CLR
12:49 -5.6 °C -14.8 °C 34875.8 hPa East 0.3 km/h 2.6 km/h 34% 0 mm WeatherDisplay:10.37 W/m2 CLR
12:55 -5.7 °C -14.8 °C 34875.8 hPa SE 3.4 km/h 10.3 km/h 34% 0 mm WeatherDisplay:10.37 W/m2 CLR
13:00 -5.6 °C -14.6 °C 34875.8 hPa Calm   6 km/h 35% 0 mm WeatherDisplay:10.37 W/m2 CLR
13:05 -5.7 °C -14.7 °C 34865.6 hPa South 1.3 km/h 17.9 km/h 35% 0 mm WeatherDisplay:10.37 W/m2 CLR
13:10 -5.8 °C -14.7 °C 34875.8 hPa ENE 0.8 km/h 10.3 km/h 35% 0 mm WeatherDisplay:10.37 W/m2 CLR
13:15 -5.8 °C -14.8 °C 34875.8 hPa Calm     35% 0 mm WeatherDisplay:10.37 W/m2 CLR
13:20 -5.6 °C -14.8 °C 34865.6 hPa SSE 6.9 km/h 15 km/h 34% 0 mm WeatherDisplay:10.37 W/m2 CLR
13:25 -5.7 °C -14.7 °C 34865.6 hPa Calm     35% 0 mm WeatherDisplay:10.37 W/m2 CLR
13:30 -5.7 °C -14.6 °C 34865.6 hPa South 0.3 km/h 3.1 km/h 35% 0 mm WeatherDisplay:10.37 W/m2 CLR
13:35 -5.5 °C -14.8 °C 34865.6 hPa SE 2.3 km/h 11.9 km/h 34% 0 mm WeatherDisplay:10.37 W/m2 CLR
13:40 -5.7 °C -14.9 °C 34865.6 hPa Calm   11.9 km/h 34% 0 mm WeatherDisplay:10.37 W/m2 CLR
13:45 -5.8 °C -15.1 °C 34865.6 hPa Calm     34% 0 mm WeatherDisplay:10.37 W/m2 CLR
13:50 -5.7 °C -14.7 °C 34865.6 hPa ESE 2.6 km/h 10.3 km/h 35% 0 mm WeatherDisplay:10.37 W/m2 CLR
13:55 -5.5 °C -14.8 °C 34865.6 hPa SE 2.6 km/h 20.9 km/h 34% 0 mm WeatherDisplay:10.37 W/m2 CLR
14:01 -5.8 °C -14.9 °C 34865.6 hPa SSE 1 km/h 20.9 km/h 34% 0 mm WeatherDisplay:10.37 W/m2 CLR
14:06 -5.8 °C -15 °C 34865.6 hPa SSE 0.3 km/h 11.9 km/h 34% 0 mm WeatherDisplay:10.37 W/m2 CLR
14:11 -5.8 °C -14.6 °C 34865.6 hPa Calm     36% 0 mm WeatherDisplay:10.37 W/m2 CLR
14:16 -5.7 °C -14.9 °C 34865.6 hPa ESE 5 km/h 20.8 km/h 34% 0 mm WeatherDisplay:10.37 W/m2 CLR
14:21 -5.8 °C -14.7 °C 34865.6 hPa ESE 0.5 km/h 6 km/h 35% 0 mm WeatherDisplay:10.37 W/m2 CLR
14:26 -5.8 °C -14.7 °C 34865.6 hPa South 2.6 km/h 9 km/h 35% 0 mm WeatherDisplay:10.37 W/m2 CLR
14:31 -5.9 °C -14.8 °C 34865.6 hPa ESE 0.3 km/h 3.1 km/h 35% 0 mm WeatherDisplay:10.37 W/m2 CLR
14:36 -5.9 °C -14.8 °C 34865.6 hPa East 1 km/h 9 km/h 35% 0 mm WeatherDisplay:10.37 W/m2 CLR
14:41 -5.9 °C -14.6 °C 34865.6 hPa SE 2.9 km/h 15.6 km/h 36% 0 mm WeatherDisplay:10.37 W/m2 CLR
14:46 -6 °C -14.7 °C 34865.6 hPa Calm     36% 0 mm WeatherDisplay:10.37 W/m2 CLR
14:47 -6.1 °C -14.8 °C 34865.6 hPa Calm     36% 0 mm WeatherDisplay:10.37 W/m2 CLR
14:52 -6.2 °C -14.9 °C 34865.6 hPa South 10.9 km/h 20.9 km/h 36% 0 mm WeatherDisplay:10.37 W/m2 CLR
14:57 -6.3 °C -14.7 °C 34865.6 hPa Calm     37% 0 mm WeatherDisplay:10.37 W/m2 CLR
15:02 -6.3 °C -14.9 °C 34852.1 hPa East 1.8 km/h 7.7 km/h 36% 0 mm WeatherDisplay:10.37 W/m2 CLR
15:07 -6.3 °C -14.8 °C 34865.6 hPa SW 2.3 km/h 15.6 km/h 37% 0 mm WeatherDisplay:10.37 W/m2 CLR
15:12 -6.3 °C -14.6 °C 34865.6 hPa SSE 3.9 km/h 15 km/h 38% 0 mm WeatherDisplay:10.37 W/m2 CLR
15:17 -6.4 °C -14.8 °C 34852.1 hPa South 1 km/h 10.3 km/h 37% 0 mm WeatherDisplay:10.37 W/m2 CLR
15:22 -6.5 °C -14.9 °C 34852.1 hPa ENE 0.5 km/h 9 km/h 37% 0 mm WeatherDisplay:10.37 W/m2 CLR
15:27 -6.4 °C -14.9 °C 34852.1 hPa SE 1.6 km/h 7.7 km/h 37% 0 mm WeatherDisplay:10.37 W/m2 CLR
15:32 -6.4 °C -14.4 °C 34852.1 hPa East 1.6 km/h 10.3 km/h 39% 0 mm WeatherDisplay:10.37 W/m2 CLR
15:38 -6.4 °C -14.9 °C 34852.1 hPa Calm     37% 0 mm WeatherDisplay:10.37 W/m2 CLR
15:43 -6.5 °C -14.5 °C 34852.1 hPa SE 0.5 km/h 5.1 km/h 39% 0 mm WeatherDisplay:10.37 W/m2 CLR
15:48 -6.6 °C -14.8 °C 34852.1 hPa SSE 5.6 km/h 23.8 km/h 38% 0 mm WeatherDisplay:10.37 W/m2 CLR
15:53 -6.6 °C -15 °C 34852.1 hPa Calm   3.1 km/h 37% 0 mm WeatherDisplay:10.37 W/m2 CLR
15:58 -6.7 °C -15.1 °C 34852.1 hPa SE 0.3 km/h 15 km/h 37% 0 mm WeatherDisplay:10.37 W/m2 CLR
16:03 -6.7 °C -15.1 °C 34852.1 hPa SSE 1.8 km/h 9 km/h 37% 0 mm WeatherDisplay:10.37 W/m2 CLR
16:08 -6.7 °C -14.9 °C 34852.1 hPa SSE 1.3 km/h 9 km/h 38% 0 mm WeatherDisplay:10.37 W/m2 CLR
16:13 -6.7 °C -14.9 °C 34852.1 hPa Calm   3.1 km/h 38% 0 mm WeatherDisplay:10.37 W/m2 CLR
16:18 -6.7 °C -15.1 °C 34841.9 hPa SSE 8 km/h 23.8 km/h 37% 0 mm WeatherDisplay:10.37 W/m2 CLR
16:23 -6.8 °C -14.9 °C 34841.9 hPa Calm   2.6 km/h 38% 0 mm WeatherDisplay:10.37 W/m2 CLR
16:28 -6.8 °C -15.2 °C 34841.9 hPa Calm   11.9 km/h 37% 0 mm WeatherDisplay:10.37 W/m2 CLR
16:33 -6.8 °C -15.2 °C 34841.9 hPa Calm     37% 0 mm WeatherDisplay:10.37 W/m2 CLR
16:38 -6.8 °C -15 °C 34841.9 hPa NE 0.3 km/h 6 km/h 38% 0 mm WeatherDisplay:10.37 W/m2 CLR
16:44 -6.7 °C -14.9 °C 34841.9 hPa SSE 0.3 km/h 6 km/h 38% 0 mm WeatherDisplay:10.37 W/m2 CLR
16:49 -6.7 °C -15.1 °C 34841.9 hPa ESE 3.4 km/h 9 km/h 37% 0 mm WeatherDisplay:10.37 W/m2 CLR
16:54 -6.7 °C -15.1 °C 34841.9 hPa Calm   11.9 km/h 37% 0 mm WeatherDisplay:10.37 W/m2 CLR
16:59 -6.8 °C -15.2 °C 34841.9 hPa SE 2.1 km/h 15 km/h 37% 0 mm WeatherDisplay:10.37 W/m2 CLR
17:04 -6.8 °C -14.9 °C 34841.9 hPa SSW 0.8 km/h 15 km/h 38% 0 mm WeatherDisplay:10.37 W/m2 CLR
17:09 -6.7 °C -14.9 °C 34841.9 hPa East 5.6 km/h 20.8 km/h 38% 0 mm WeatherDisplay:10.37 W/m2 CLR
17:14 -6.8 °C -14.9 °C 34841.9 hPa SSE 3.1 km/h 15 km/h 38% 0 mm WeatherDisplay:10.37 W/m2 CLR
17:19 -6.8 °C -14.9 °C 34841.9 hPa SSE 1 km/h 7.7 km/h 38% 0 mm WeatherDisplay:10.37 W/m2 CLR
17:24 -6.8 °C -14.9 °C 34841.9 hPa SSE 3.4 km/h 18.2 km/h 38% 0 mm WeatherDisplay:10.37 W/m2 CLR
17:29 -6.8 °C -15.2 °C 34841.9 hPa South 3.4 km/h 10.3 km/h 37% 0 mm WeatherDisplay:10.37 W/m2 CLR
17:34 -6.9 °C -15.1 °C 34831.8 hPa Calm     38% 0 mm WeatherDisplay:10.37 W/m2 CLR
17:39 -7 °C -15.3 °C 34831.8 hPa SE 4.7 km/h 12.9 km/h 37% 0 mm WeatherDisplay:10.37 W/m2 CLR
17:44 -6.9 °C -15.1 °C 34831.8 hPa Calm   3.1 km/h 38% 0 mm WeatherDisplay:10.37 W/m2 CLR
17:50 -6.9 °C -15.1 °C 34831.8 hPa SSE 4.2 km/h 15.6 km/h 38% 0 mm WeatherDisplay:10.37 W/m2 CLR
17:55 -6.9 °C -15.1 °C 34831.8 hPa South 0.8 km/h 10.3 km/h 38% 0 mm WeatherDisplay:10.37 W/m2 CLR
18:00 -6.9 °C -15.1 °C 34841.9 hPa SE 7.7 km/h 20.9 km/h 38% 0 mm WeatherDisplay:10.37 W/m2 CLR
18:05 -7 °C -15.2 °C 34831.8 hPa Calm     38% 0 mm WeatherDisplay:10.37 W/m2 CLR
18:10 -7 °C -15.2 °C 34831.8 hPa East 0.5 km/h 5.1 km/h 38% 0 mm WeatherDisplay:10.37 W/m2 CLR
18:15 -7.1 °C -15 °C 34831.8 hPa East 0.3 km/h 3.1 km/h 39% 0 mm WeatherDisplay:10.37 W/m2 CLR
18:20 -7.1 °C -15.2 °C 34831.8 hPa SE 0.5 km/h 6 km/h 38% 0 mm WeatherDisplay:10.37 W/m2 CLR
18:25 -7.1 °C -15.1 °C 34831.8 hPa SSE 6.8 km/h 18.2 km/h 39% 0 mm WeatherDisplay:10.37 W/m2 CLR
18:30 -7.1 °C -15.2 °C 34831.8 hPa SE 5.1 km/h 9 km/h 38% 0 mm WeatherDisplay:10.37 W/m2 CLR
18:35 -7.1 °C -15.1 °C 34831.8 hPa Calm     39% 0 mm WeatherDisplay:10.37 W/m2 CLR
18:40 -7.2 °C -15.1 °C 34831.8 hPa Calm   9 km/h 39% 0 mm WeatherDisplay:10.37 W/m2 CLR
18:45 -7.2 °C -15.3 °C 34831.8 hPa SE 0.5 km/h 3.1 km/h 38% 0 mm WeatherDisplay:10.37 W/m2 CLR
18:50 -7.3 °C -15.2 °C 34831.8 hPa Calm     39% 0 mm WeatherDisplay:10.37 W/m2 CLR
18:56 -7.3 °C -15.2 °C 34831.8 hPa South 0.3 km/h 10.3 km/h 39% 0 mm WeatherDisplay:10.37 W/m2 CLR
19:01 -7.3 °C -15.2 °C 34831.8 hPa Calm     39% 0 mm WeatherDisplay:10.37 W/m2 CLR
19:06 -7.4 °C -14.9 °C 34831.8 hPa SSW 1 km/h 17.9 km/h 41% 0 mm WeatherDisplay:10.37 W/m2 CLR
19:11 -7.4 °C -15.2 °C 34831.8 hPa South 0.5 km/h 6 km/h 40% 0 mm WeatherDisplay:10.37 W/m2 CLR
19:16 -7.5 °C -15 °C 34831.8 hPa SSE 0.8 km/h 9 km/h 41% 0 mm WeatherDisplay:10.37 W/m2 CLR
19:21 -7.6 °C -15.1 °C 34831.8 hPa Calm     41% 0 mm WeatherDisplay:10.37 W/m2 CLR
19:26 -7.6 °C -15.1 °C 34831.8 hPa Calm     41% 0 mm WeatherDisplay:10.37 W/m2 CLR
19:31 -7.6 °C -15.1 °C 34831.8 hPa SSE 0.3 km/h 3.1 km/h 41% 0 mm WeatherDisplay:10.37 W/m2 CLR
19:36 -7.7 °C -14.8 °C 34831.8 hPa Calm     43% 0 mm WeatherDisplay:10.37 W/m2 CLR
19:41 -7.7 °C -15 °C 34831.8 hPa Calm     42% 0 mm WeatherDisplay:10.37 W/m2 CLR
19:46 -7.7 °C -15.2 °C 34831.8 hPa Calm   3.1 km/h 41% 0 mm WeatherDisplay:10.37 W/m2 CLR
19:51 -7.8 °C -15.1 °C 34831.8 hPa Calm     42% 0 mm WeatherDisplay:10.37 W/m2 CLR
19:56 -7.9 °C -14.8 °C 34831.8 hPa Calm     44% 0 mm WeatherDisplay:10.37 W/m2 CLR
20:02 -7.9 °C -15.2 °C 34831.8 hPa Calm     42% 0 mm WeatherDisplay:10.37 W/m2 CLR
20:07 -7.9 °C -14.5 °C 34831.8 hPa Calm     46% 0 mm WeatherDisplay:10.37 W/m2 CLR
20:12 -8.1 °C -14.6 °C 34831.8 hPa Calm     46% 0 mm WeatherDisplay:10.37 W/m2 CLR
20:17 -8.2 °C -14.7 °C 34831.8 hPa Calm     46% 0 mm WeatherDisplay:10.37 W/m2 CLR
20:22 -8.2 °C -14.9 °C 34831.8 hPa Calm     45% 0 mm WeatherDisplay:10.37 W/m2 CLR
20:27 -8.3 °C -14.6 °C 34831.8 hPa Calm     47% 0 mm WeatherDisplay:10.37 W/m2 CLR
20:32 -8.4 °C -14.6 °C 34831.8 hPa Calm     48% 0 mm WeatherDisplay:10.37 W/m2 CLR
20:37 -8.5 °C -14.8 °C 34831.8 hPa Calm     47% 0 mm WeatherDisplay:10.37 W/m2 CLR
20:42 -8.6 °C -14.8 °C 34818.2 hPa Calm     48% 0 mm WeatherDisplay:10.37 W/m2 CLR
20:47 -8.8 °C -14.9 °C 34818.2 hPa Calm     48% 0 mm WeatherDisplay:10.37 W/m2 CLR
20:52 -8.9 °C -14.7 °C 34818.2 hPa Calm     50% 0 mm WeatherDisplay:10.37 W/m2 CLR
20:57 -9 °C -14.6 °C 34818.2 hPa Calm     51% 0 mm WeatherDisplay:10.37 W/m2 CLR
21:02 -9.1 °C -14.6 °C 34818.2 hPa Calm     52% 0 mm WeatherDisplay:10.37 W/m2 CLR
21:08 -9.2 °C -14.7 °C 34818.2 hPa Calm     52% 0 mm WeatherDisplay:10.37 W/m2 CLR
21:13 -9.3 °C -14.6 °C 34818.2 hPa Calm     53% 0 mm WeatherDisplay:10.37 W/m2 CLR
21:18 -9.3 °C -14.6 °C 34818.2 hPa Calm     53% 0 mm WeatherDisplay:10.37 W/m2 CLR
21:23 -9.4 °C -14.4 °C 34818.2 hPa Calm     55% 0 mm WeatherDisplay:10.37 W/m2 CLR
Tuulensuunkaari, Veikkola, Suomi
Compliments of Weather Underground - 2.5 mb